sat.trackr.live / text

‹ back to catalog

STARLINK-32739

NORAD 62498 · 2025-003M

PAYLOAD ACTIVE UNKNOWN

§ Identity

Operator
Country
US
Launch date
2025-01-06
Launch site
AFETR
Launch vehicle
Mass (kg)
RCS (m²)

Purposes: comms

External: N2YO · Heavens-Above · Gunter

§ Orbital elements

Epoch: 2026-09-21T06:32:36.356064Z

Period
94.27 min
Inclination
43.0022°
Eccentricity
0.0001632
Mean motion
15.27586635 rev/d
Perigee alt
481.9 km
Apogee alt
484.1 km
Semi-major
6,861.2 km
B*
3.3906e-4
RAAN
264.4037°
Arg perigee
277.4085°
Mean anomaly
82.6581°
Rev number
9,653

§ Raw data

STARLINK-327391 62498U 25003M   26264.27264301  .00009081  00000+0  33906-3 0  99952 62498  43.0022 264.4037 0001632 277.4085  82.6581 15.27586635 96534

JSON: /api/v1/satellites/62498 · /tle

For live sub-satellite position, see the globe view (requires WebGL).

§ Visibility from observer

Set your observer location to see the next 7 days of passes ≥ 10°. The values pass through the URL so the page stays shareable.

No JS? Fill the form by hand. The geolocation button needs JavaScript.